| time (UTC) | temp F | wind direction | speed knots | gust knots | rain 1hr in | rain 24hr in | rain mn in | humidity % | barometer mb |
| 20260831185442 | 85 | 57 | 0.0 | 0.9 | 0.00 | 0.00 | 0.00 | 78 | 1018.1 |
| 20260831184511 | 84 | 57 | 0.9 | 2.6 | 0.00 | 0.00 | 0.00 | 80 | 1018.3 |
| 20260831182442 | 85 | 28 | 0.0 | 0.0 | 0.00 | 0.00 | 0.00 | 76 | 1018.2 |
| 20260831181442 | 87 | 26 | 0.0 | 0.9 | 0.00 | 0.00 | 0.00 | 75 | 1018.3 |
| 20260831180442 | 86 | 26 | 0.9 | 0.9 | 0.00 | 0.00 | 0.00 | 73 | 1018.4 |
| 20260831175442 | 86 | 24 | 0.0 | 1.7 | 0.00 | 0.00 | 0.00 | 76 | 1018.4 |
| 20260831174442 | 86 | 71 | 0.9 | 0.9 | 0.00 | 0.00 | 0.00 | 75 | 1018.4 |
| 20260831173442 | 86 | 306 | 0.0 | 0.0 | 0.00 | 0.00 | 0.00 | 75 | 1018.5 |
| 20260831172512 | 86 | 303 | 0.0 | 0.0 | 0.00 | 0.00 | 0.00 | 76 | 1018.5 |
| 20260831171442 | 86 | 302 | 0.0 | 0.9 | 0.00 | 0.00 | 0.00 | 77 | 1018.8 |
| 20260831170442 | 86 | 164 | 0.0 | 0.0 | 0.00 | 0.00 | 0.00 | 75 | 1018.7 |
| 20260831165442 | 85 | 58 | 0.0 | 0.9 | 0.00 | 0.00 | 0.00 | 76 | 1018.8 |
| 20260831164442 | 85 | 48 | 0.0 | 0.0 | 0.00 | 0.00 | 0.00 | 78 | 1018.9 |
| 20260831163441 | 85 | 49 | 0.0 | 0.9 | 0.00 | 0.00 | 0.00 | 78 | 1018.9 |
| 20260831162442 | 84 | 216 | 1.7 | 1.7 | 0.00 | 0.00 | 0.00 | 78 | 1019.0 |
| 20260831160442 | 84 | 80 | 0.0 | 0.0 | 0.00 | 0.00 | 0.00 | 79 | 1019.0 |
| 20260831155442 | 83 | 74 | 0.0 | 0.0 | 0.00 | 0.00 | 0.00 | 79 | 1019.1 |
| 20260831154442 | 83 | 74 | 0.9 | 0.9 | 0.00 | 0.00 | 0.00 | 79 | 1019.1 |
| 20260831153442 | 83 | 74 | 0.0 | 0.0 | 0.00 | 0.00 | 0.00 | 78 | 1019.0 |
| 20260831152442 | 83 | 71 | 0.9 | 0.9 | 0.00 | 0.00 | 0.00 | 79 | 1018.9 |
| 20260831150512 | 82 | 102 | 0.0 | 1.7 | 0.00 | 0.00 | 0.00 | 80 | 1019.0 |
| 20260831145442 | 82 | 32 | 0.0 | 1.7 | 0.00 | 0.00 | 0.00 | 81 | 1019.0 |
| 20260831144542 | 82 | 213 | 0.0 | 0.0 | 0.00 | 0.00 | 0.00 | 81 | 1019.1 |
| 20260831143442 | 82 | 213 | 0.0 | 0.0 | 0.00 | 0.00 | 0.00 | 81 | 1019.1 |
| 20260831142442 | 81 | 300 | 0.0 | 0.0 | 0.00 | 0.00 | 0.00 | 82 | 1019.0 |
| 20260831140442 | 81 | 300 | 0.0 | 0.0 | 0.00 | 0.00 | 0.00 | 83 | 1019.0 |
| 20260831135442 | 80 | 201 | 0.0 | 0.0 | 0.00 | 0.00 | 0.00 | 83 | 1019.0 |
| 20260831134442 | 80 | 281 | 0.0 | 0.0 | 0.00 | 0.00 | 0.00 | 82 | 1019.0 |
| 20260831133442 | 80 | 46 | 0.0 | 0.0 | 0.00 | 0.00 | 0.00 | 84 | 1019.0 |
| 20260831132442 | 80 | 44 | 0.0 | 0.0 | 0.00 | 0.00 | 0.00 | 84 | 1019.0 |
| 20260831130442 | 79 | 9 | 0.0 | 0.0 | 0.00 | 0.00 | 0.00 | 84 | 1019.0 |
| 20260831125442 | 78 | 9 | 0.0 | 0.0 | 0.00 | 0.00 | 0.00 | 86 | 1019.0 |
| 20260831124512 | 78 | 9 | 0.0 | 0.0 | 0.00 | 0.00 | 0.00 | 88 | 1019.0 |
| 20260831123442 | 77 | 9 | 0.0 | 0.0 | 0.00 | 0.00 | 0.00 | 90 | 1018.9 |
| 20260831122442 | 76 | 10 | 0.0 | 0.9 | 0.00 | 0.00 | 0.00 | 91 | 1018.8 |
| 20260831121442 | 76 | 10 | 0.0 | 0.0 | 0.00 | 0.00 | 0.00 | 92 | 1018.9 |
| 20260831120542 | 75 | 10 | 0.0 | 0.0 | 0.00 | 0.00 | 0.00 | 93 | 1018.8 |
| 20260831115442 | 75 | 10 | 0.0 | 0.0 | 0.00 | 0.00 | 0.00 | 93 | 1018.9 |
| 20260831114442 | 74 | 10 | 0.0 | 0.0 | 0.00 | 0.00 | 0.00 | 93 | 1018.8 |
| 20260831112442 | 74 | 10 | 0.0 | 0.0 | 0.00 | 0.00 | 0.00 | 93 | 1018.6 |
| 20260831110442 | 74 | 331 | 0.0 | 0.0 | 0.00 | 0.00 | 0.00 | 93 | 1018.2 |
| 20260831105442 | 74 | 223 | 0.0 | 0.0 | 0.00 | 0.00 | 0.00 | 93 | 1018.1 |
| 20260831104442 | 74 | 223 | 0.0 | 0.0 | 0.00 | 0.00 | 0.00 | 92 | 1018.1 |
| 20260831102512 | 74 | 223 | 0.0 | 0.0 | 0.00 | 0.00 | 0.00 | 92 | 1018.2 |
| 20260831101442 | 74 | 223 | 0.0 | 0.0 | 0.00 | 0.00 | 0.00 | 92 | 1018.2 |
| 20260831100442 | 74 | 223 | 0.0 | 0.0 | 0.00 | 0.00 | 0.00 | 92 | 1018.0 |
| 20260831095442 | 74 | 223 | 0.0 | 0.0 | 0.00 | 0.00 | 0.00 | 92 | 1018.0 |
| 20260831094442 | 74 | 223 | 0.0 | 0.0 | 0.00 | 0.00 | 0.00 | 92 | 1018.0 |
| 20260831093442 | 74 | 223 | 0.0 | 0.0 | 0.00 | 0.00 | 0.00 | 92 | 1018.0 |
| 20260831092512 | 75 | 223 | 0.0 | 0.0 | 0.00 | 0.00 | 0.00 | 92 | 1018.0 |
| 20260831091442 | 75 | 223 | 0.0 | 0.0 | 0.00 | 0.00 | 0.00 | 91 | 1017.9 |
| 20260831085442 | 75 | 223 | 0.0 | 0.0 | 0.00 | 0.00 | 0.00 | 91 | 1018.0 |
| 20260831084512 | 75 | 223 | 0.0 | 0.0 | 0.00 | 0.00 | 0.00 | 91 | 1018.0 |
| 20260831082512 | 75 | 223 | 0.0 | 0.0 | 0.00 | 0.00 | 0.00 | 91 | 1017.9 |
| 20260831081442 | 76 | 223 | 0.0 | 0.0 | 0.00 | 0.00 | 0.00 | 91 | 1018.0 |
| 20260831080442 | 76 | 223 | 0.0 | 0.0 | 0.00 | 0.00 | 0.00 | 90 | 1018.0 |
| 20260831075442 | 76 | 223 | 0.0 | 0.0 | 0.00 | 0.00 | 0.00 | 90 | 1017.9 |
| 20260831074442 | 76 | 223 | 0.0 | 0.0 | 0.00 | 0.00 | 0.00 | 90 | 1018.0 |
| 20260831073442 | 76 | 223 | 0.0 | 0.0 | 0.00 | 0.00 | 0.00 | 90 | 1017.9 |
| 20260831072442 | 76 | 223 | 0.0 | 0.0 | 0.00 | 0.00 | 0.00 | 90 | 1018.1 |
| 20260831071442 | 76 | 223 | 0.0 | 0.0 | 0.00 | 0.00 | 0.00 | 89 | 1018.1 |
| 20260831070612 | 76 | 223 | 0.0 | 0.0 | 0.00 | 0.00 | 0.00 | 89 | 1018.1 |
| 20260831065442 | 76 | 223 | 0.0 | 0.0 | 0.00 | 0.00 | 0.00 | 89 | 1018.0 |
| 20260831064442 | 77 | 223 | 0.0 | 0.0 | 0.00 | 0.00 | 0.00 | 89 | 1018.1 |
| 20260831062442 | 77 | 223 | 0.0 | 1.7 | 0.00 | 0.00 | 0.00 | 89 | 1018.0 |
| 20260831060442 | 77 | 217 | 0.0 | 0.0 | 0.00 | 0.00 | 0.00 | 89 | 1017.9 |
| 20260831055442 | 77 | 213 | 0.0 | 0.0 | 0.00 | 0.00 | 0.00 | 89 | 1018.1 |
| 20260831054442 | 77 | 201 | 1.7 | 2.6 | 0.00 | 0.00 | 0.00 | 89 | 1018.1 |
| 20260831053442 | 77 | 230 | 0.0 | 0.9 | 0.00 | 0.00 | 0.00 | 89 | 1018.2 |
| 20260831052512 | 77 | 223 | 0.0 | 0.0 | 0.00 | 0.00 | 0.00 | 89 | 1018.2 |
| 20260831051442 | 77 | 201 | 0.0 | 0.0 | 0.00 | 0.00 | 0.00 | 89 | 1018.3 |
| 20260831050442 | 77 | 257 | 0.0 | 0.0 | 0.00 | 0.00 | 0.00 | 88 | 1018.3 |
| 20260831044442 | 77 | 238 | 0.0 | 0.0 | 0.00 | 0.00 | 0.00 | 88 | 1018.2 |
| 20260831043442 | 77 | 238 | 0.0 | 1.7 | 0.00 | 0.00 | 0.00 | 88 | 1018.2 |
| 20260831042442 | 77 | 238 | 0.0 | 0.0 | 0.00 | 0.00 | 0.00 | 87 | 1018.3 |
| 20260831041442 | 77 | 238 | 0.0 | 0.0 | 0.00 | 0.00 | 0.00 | 87 | 1018.3 |
| 20260831040442 | 77 | 238 | 0.0 | 0.0 | 0.00 | 0.00 | 0.00 | 86 | 1018.5 |
| 20260831035443 | 78 | 238 | 0.0 | 0.0 | 0.00 | 0.00 | 0.00 | 86 | 1018.6 |
| 20260831034442 | 78 | 238 | 0.0 | 0.0 | 0.00 | 0.00 | 0.00 | 85 | 1018.6 |
| 20260831033442 | 78 | 238 | 0.0 | 0.0 | 0.00 | 0.00 | 0.00 | 85 | 1018.8 |
| 20260831032443 | 78 | 238 | 0.0 | 0.0 | 0.00 | 0.00 | 0.00 | 85 | 1019.0 |
| 20260831031443 | 78 | 238 | 1.7 | 2.6 | 0.00 | 0.00 | 0.00 | 85 | 1019.0 |
| 20260831030513 | 78 | 256 | 0.0 | 0.9 | 0.00 | 0.00 | 0.00 | 85 | 1018.9 |
| 20260831025443 | 78 | 256 | 0.0 | 0.9 | 0.00 | 0.00 | 0.00 | 84 | 1019.0 |
| 20260831024443 | 79 | 256 | 0.0 | 0.0 | 0.00 | 0.00 | 0.00 | 84 | 1019.1 |
| 20260831022513 | 79 | 245 | 1.7 | 1.7 | 0.00 | 0.00 | 0.00 | 85 | 1019.0 |
| 20260831021443 | 79 | 238 | 0.0 | 0.9 | 0.00 | 0.00 | 0.00 | 85 | 1019.1 |
| 20260831020443 | 79 | 238 | 0.0 | 0.0 | 0.00 | 0.00 | 0.00 | 85 | 1019.1 |
| 20260831015443 | 80 | 240 | 0.0 | 0.0 | 0.00 | 0.00 | 0.00 | 84 | 1019.2 |
| 20260831014443 | 80 | 294 | 0.0 | 0.0 | 0.00 | 0.00 | 0.00 | 84 | 1019.0 |
| 20260831013442 | 80 | 223 | 0.0 | 0.0 | 0.00 | 0.00 | 0.00 | 84 | 1019.0 |
| 20260831012443 | 80 | 223 | 0.0 | 0.0 | 0.00 | 0.00 | 0.00 | 84 | 1019.2 |
| 20260831011443 | 80 | 223 | 0.0 | 0.0 | 0.00 | 0.00 | 0.00 | 83 | 1019.2 |
| 20260831010443 | 80 | 223 | 0.0 | 0.9 | 0.00 | 0.00 | 0.00 | 83 | 1019.0 |
| 20260831005443 | 80 | 223 | 0.0 | 0.0 | 0.00 | 0.00 | 0.00 | 83 | 1018.9 |
| 20260831004443 | 80 | 223 | 0.0 | 0.0 | 0.00 | 0.00 | 0.00 | 82 | 1018.9 |
| 20260831003443 | 80 | 223 | 0.0 | 0.0 | 0.00 | 0.00 | 0.00 | 82 | 1018.8 |
| 20260831002443 | 80 | 179 | 0.9 | 0.9 | 0.00 | 0.00 | 0.00 | 82 | 1018.8 |
| 20260831001443 | 81 | 207 | 0.0 | 0.0 | 0.00 | 0.00 | 0.00 | 81 | 1018.8 |
| 20260831000443 | 81 | 97 | 0.0 | 0.0 | 0.00 | 0.00 | 0.00 | 81 | 1018.7 |
| 20260830235443 | 80 | 88 | 0.0 | 0.0 | 0.00 | 0.00 | 0.00 | 82 | 1018.6 |
| 20260830234443 | 80 | 88 | 0.0 | 0.0 | 0.00 | 0.00 | 0.00 | 82 | 1018.6 |
| 20260830233443 | 80 | 88 | 0.0 | 0.0 | 0.00 | 0.00 | 0.00 | 83 | 1018.6 |
| 20260830232443 | 80 | 88 | 0.0 | 0.0 | 0.00 | 0.00 | 0.00 | 83 | 1018.6 |
| 20260830231443 | 81 | 88 | 0.0 | 0.0 | 0.00 | 0.00 | 0.00 | 81 | 1018.7 |
| 20260830230443 | 82 | 77 | 0.0 | 0.0 | 0.00 | 0.00 | 0.00 | 81 | 1018.6 |
| 20260830225443 | 82 | 115 | 0.0 | 0.0 | 0.00 | 0.00 | 0.00 | 79 | 1018.6 |
| 20260830224443 | 83 | 40 | 0.0 | 0.9 | 0.00 | 0.00 | 0.00 | 79 | 1018.5 |
| 20260830222443 | 84 | 83 | 0.0 | 0.9 | 0.00 | 0.00 | 0.00 | 78 | 1018.5 |
| 20260830221443 | 84 | 83 | 0.0 | 0.0 | 0.00 | 0.00 | 0.00 | 78 | 1018.5 |
| 20260830220443 | 84 | 84 | 0.0 | 0.0 | 0.00 | 0.00 | 0.00 | 78 | 1018.4 |
| 20260830214443 | 85 | 83 | 0.0 | 1.7 | 0.00 | 0.00 | 0.00 | 76 | 1018.4 |
| 20260830213443 | 86 | 163 | 0.0 | 2.6 | 0.00 | 0.00 | 0.00 | 75 | 1018.3 |
| 20260830212443 | 86 | 286 | 0.0 | 0.0 | 0.00 | 0.00 | 0.00 | 74 | 1018.3 |
| 20260830211443 | 87 | 238 | 3.5 | 3.5 | 0.00 | 0.00 | 0.00 | 68 | 1018.1 |
| 20260830210443 | 87 | 265 | 0.0 | 1.7 | 0.00 | 0.00 | 0.00 | 71 | 1018.2 |
| 20260830205443 | 87 | 215 | 0.9 | 0.9 | 0.00 | 0.00 | 0.00 | 68 | 1018.2 |
| 20260830204513 | 88 | 258 | 0.0 | 1.7 | 0.00 | 0.00 | 0.00 | 69 | 1018.3 |
| 20260830203443 | 87 | 329 | 0.0 | 1.7 | 0.00 | 0.00 | 0.00 | 68 | 1018.5 |
| 20260830202443 | 87 | 304 | 0.0 | 0.0 | 0.00 | 0.00 | 0.00 | 69 | 1018.6 |
| 20260830201443 | 87 | 131 | 0.0 | 0.9 | 0.00 | 0.00 | 0.00 | 67 | 1018.7 |
| 20260830200443 | 87 | 11 | 0.0 | 0.9 | 0.00 | 0.00 | 0.00 | 67 | 1018.8 |
| 20260830195443 | 87 | 233 | 0.9 | 0.9 | 0.00 | 0.00 | 0.00 | 69 | 1019.0 |
| 20260830194443 | 87 | 281 | 0.0 | 1.7 | 0.00 | 0.00 | 0.00 | 70 | 1019.1 |
| 20260830193443 | 87 | 323 | 0.0 | 1.7 | 0.00 | 0.00 | 0.00 | 70 | 1019.2 |
| 20260830192443 | 87 | 283 | 0.0 | 1.7 | 0.00 | 0.00 | 0.00 | 67 | 1019.3 |
| 20260830191443 | 87 | 269 | 0.0 | 1.7 | 0.00 | 0.00 | 0.00 | 66 | 1019.4 |
| 20260830190443 | 87 | 217 | 0.0 | 0.9 | 0.00 | 0.00 | 0.00 | 69 | 1019.6 |